Regional Weather Roundup
Issued by NWS Newport/Morehead, NC

Current Version | Previous Version | Graphics & Text | Print | Product List | Glossary On
Versions: 1 2 3 4 5 6 7 8 9 10 11 12 13 14 15 16 17 18 19 20 21 22 23 24 25 26 27 28 29 30 31 32 33 34 35 36 37 38 39 40 41 42 43 44 45 46 47 48 49 50
000 ASUS42 KMHX 021513 RWRMHX WEATHER ROUNDUP FOR EASTERN NORTH CAROLINA NATIONAL WEATHER SERVICE NEWPORT/MOREHEAD CITY NC 1100 AM EDT WED SEP 02 2015 NOTE: "FAIR" INDICATES FEW OR NO CLOUDS BELOW 12,000 FEET WITH NO SIGNIFICANT WEATHER AND/OR OBSTRUCTIONS TO VISIBILITY NCZ015>017-031-032-045>047-102-103-021600- NORTH COAST CITY SKY/WX TMP DP RH WIND PRES REMARKS EDENTON SUNNY 84 70 62 NW5 30.05F ELIZABETH CITY SUNNY 86 73 65 VRB3 30.05S KITTY HAWK SUNNY 86 71 61 CALM 30.04S MANTEO SUNNY 82 74 77 NE3 30.05S $$ NCZ045>047-081-094-103-104-021600- CENTRAL COAST CITY SKY/WX TMP DP RH WIND PRES REMARKS FRISCO SUNNY 83 73 72 VRB5 30.05S SWANQUARTER N/A 84 N/A N/A NE2 30.03S $$ NCZ095-097-098-100-101-021600- SOUTHERN COAST CITY SKY/WX TMP DP RH WIND PRES REMARKS BEAUFORT SUNNY 83 74 74 NW6 30.06S CEDAR ISLAND N/A 82 N/A N/A NW5 30.09S JACKSONVILLE SUNNY 86 71 60 CALM 30.06S PINEY ISLAND SUNNY N/A N/A N/A N7 30.06R WILMINGTON MOSUNNY 87 73 62 N3 30.07R $$ NCZ011>013-027>030-043-044-078>080-089-090>093-098-021600- COASTAL PLAIN CITY SKY/WX TMP DP RH WIND PRES REMARKS AHOSKIE SUNNY 84 70 62 CALM 30.06S CLINTON MOSUNNY 86 74 67 CALM 30.08R ELIZABETHTOWN MOSUNNY 85 71 63 CALM 30.08R GOLDSBORO MOSUNNY 86 71 62 VRB3 30.05F GREENVILLE MOSUNNY 86 72 62 CALM 30.08S HAVELOCK MOSUNNY 86 69 56 N9 30.07S KENANSVILLE N/A 85 70 61 CALM 30.08S KINSTON SUNNY 86 70 58 CALM 30.07S NEW BERN SUNNY 86 70 58 N6 30.07S RICHLANDS SUNNY 84 70 61 CALM 30.07R ROCKY MOUNT MOSUNNY 88 70 55 N3 30.07S WASHINGTON SUNNY 85 71 61 CALM 30.06S WHITEVILLE MOSUNNY 85 72 63 W6 30.08R $$ AMZ130-135-150-152-154-156-158-170-250-252-270-ANZ085-086-088-633-658-670-021600- MARINE OBSERVATIONS STATION/POSITION TIME TEMP WIND PRES WAVE SWELL AIR SEA DIR/SP/G HT/PER HT/PER (UTC) (F) (DEG/KT/KT) (MB) (FT/S) (FT/S) CHESAPEAKE LIGHT 1500 82 290/ 3/ 3 1018.1 64 E VA BEACH 1450 79 80 310/ 2/ 2 1017.0 2/ 7 2/ 7 DUCK 1400 78 78 10/ 3/ 4 1016.8 2 E DUCK 1411 80 N/A 1/ 9 OREGON INLET 1400 80 81 350/ 4/ 7 1017.4 13E OREGON INLT 1500 80 N/A 1/14 HATTERAS CG 1400 79 81 340/ 6/ 7 1017.5 DIAMOND BUOY 1450 80 84 350/ 6/ 8 1017.6 2/ 9 2/ 9 CAPE LOOKOUT 1500 85 360/ 1/ 2 1017.5 BEAUFORT LAB 1400 80 79 330/ 3/ 5 1017.1 30 SE NEW RVR IN 1408 80 81 310/ 6/ 10 1018.3 30 SE NEW RVR IN 1425 81 N/A 2/10 27 SE WRIGHTSVLE 1400 77 81 320/ 8/ 10 N/A 5 SE WRIGHTSVLE 1408 81 82 320/ 6/ 8 1018.0 225 S CAPE HAT 1450 82 83 280/ 8/ 10 1018.6 2/14 2/14 41 SE CHARLESTON 1450 81 84 360/ 6/ 8 1018.9 2/ 7 2/ 7 $$

USA.gov is the U.S. government's official web portal to all federal, state and local government web resources and services.